EA8CHC Sevilla ES current weather conditions

sailwx.info

Wind from 269 at 1 knots gusting 4

Air temperature 22.2° C
Dewpoint 10.0° C

Last reported at 2014-Oct-31 19:42 UTC.
Time now 2014-Nov-01 04:02 UTC

Location: N 37°26' W 006°03'.
View on Google Maps.

See reports from other nearby stations

  
Tides and Currents Weather Stations Pressure Air Temp Water Temp Dewpoint Dewpoint Depression Visibility Wind Speed Wind Dir Waves Ship Positions
date/time (UTC)wind fromknots sea level pressurealtimeterstation pressurevisibilityair tempwater tempwave heightnotes
2014-Oct-31 19:42 269 1 gusting 4 22.2
2014-Oct-31 19:37 269 0 gusting 4 22.8
2014-Oct-31 19:32 277 0 gusting 4 22.8
2014-Oct-31 19:27 274 1 gusting 4 22.8
2014-Oct-31 19:22 268 2 gusting 4 22.8
2014-Oct-31 19:17 255 2 gusting 4 22.8
2014-Oct-31 19:12 267 1 gusting 5 22.8
2014-Oct-31 19:07 277 2 gusting 5 22.8
2014-Oct-31 19:02 283 3 gusting 6 22.8
2014-Oct-31 18:57 274 3 gusting 6 22.8
2014-Oct-31 18:52 274 3 gusting 5 22.8
2014-Oct-31 18:47 281 1 gusting 5 23.3
2014-Oct-31 18:42 343 2 gusting 5 23.3
2014-Oct-31 18:37 291 2 gusting 5 23.3
2014-Oct-31 18:32 259 2 gusting 5 23.3
2014-Oct-31 18:27 254 2 gusting 5 23.3
2014-Oct-31 18:22 263 2 gusting 5 23.3
2014-Oct-31 18:17 242 2 gusting 4 23.9
2014-Oct-31 18:12 238 2 gusting 4 23.9
2014-Oct-31 18:07 249 2 gusting 4 23.9
2014-Oct-31 18:02 262 1 gusting 4 23.9
2014-Oct-31 17:57 257 1 gusting 4 24.4
2014-Oct-31 17:52 236 1 gusting 4 24.4
2014-Oct-31 17:47 246 1 gusting 4 24.4
2014-Oct-31 17:42 250 1 gusting 3 24.4
2014-Oct-31 17:37 254 0 gusting 3 25.0
2014-Oct-31 17:32 254 0 gusting 2 25.0
2014-Oct-31 17:27 256 0 gusting 2 25.6
2014-Oct-31 17:22 259 0 gusting 2 25.6
2014-Oct-31 17:17 259 0 gusting 2 26.1
2014-Oct-31 17:12 259 0 gusting 3 26.1
2014-Oct-31 17:07 259 0 gusting 3 26.7
2014-Oct-31 17:02 259 0 gusting 3 26.7
2014-Oct-31 16:57 259 0 gusting 3 26.7
2014-Oct-31 16:52 261 0 gusting 2 26.7
2014-Oct-31 16:47 268 0 gusting 2 27.2
2014-Oct-31 16:42 285 27.2
2014-Oct-31 16:37 286 0 gusting 2 27.2
2014-Oct-31 16:32 286 27.2
2014-Oct-31 16:27 286 27.2
2014-Oct-31 16:22 286 0 gusting 3 27.2
2014-Oct-31 16:17 286 0 gusting 3 27.2
2014-Oct-31 16:12 286 0 gusting 3 27.2
2014-Oct-31 16:07 286 0 gusting 3 27.2
2014-Oct-31 16:02 216 27.8
2014-Oct-31 15:57 202 27.8
2014-Oct-31 15:52 202 27.8
2014-Oct-31 15:47 043 28.3
2014-Oct-31 15:42 043 27.8
2014-Oct-31 15:37 043 27.8
2014-Oct-31 15:32 043 27.8
2014-Oct-31 15:27 043 27.2
2014-Oct-31 15:22 043 26.7
2014-Oct-31 15:17 043 26.7
2014-Oct-31 15:12 043 26.7
2014-Oct-31 15:07 043 26.7
2014-Oct-31 15:02 043 26.7
2014-Oct-31 14:57 043 26.7
2014-Oct-31 14:52 042 26.7
2014-Oct-31 14:47 042 26.7
2014-Oct-31 14:42 042 26.7
2014-Oct-31 14:37 051 26.7
2014-Oct-31 14:32 051 0 gusting 4 26.7
2014-Oct-31 14:27 051 0 gusting 4 26.7
2014-Oct-31 14:22 013 0 gusting 3 26.7
2014-Oct-31 14:17 011 0 gusting 3 26.7
2014-Oct-31 14:12 344 27.2
2014-Oct-31 14:07 036 27.2
2014-Oct-31 14:02 030 26.7
2014-Oct-31 13:57 030 26.7
2014-Oct-31 13:52 030 26.7
2014-Oct-31 13:47 055 26.7
2014-Oct-31 13:42 022 0 gusting 3 26.7
2014-Oct-31 13:37 023 26.1
2014-Oct-31 13:32 029 0 gusting 3 26.1
2014-Oct-31 13:27 278 0 gusting 3 26.1
2014-Oct-31 13:22 276 0 gusting 3 26.1
2014-Oct-31 13:17 288 0 gusting 3 25.6
2014-Oct-31 13:12 313 25.6
2014-Oct-31 13:07 062 25.6
2014-Oct-31 13:02 131 0 gusting 3 25.6
2014-Oct-31 12:57 069 0 gusting 3 25.6
2014-Oct-31 12:52 040 0 gusting 5 25.6
2014-Oct-31 12:47 063 25.6
2014-Oct-31 12:42 015 0 gusting 4 25.6
2014-Oct-31 12:37 325 0 gusting 4 25.0
2014-Oct-31 12:32 314 1 gusting 4 25.0
2014-Oct-31 12:27 217 0 gusting 4 25.0
2014-Oct-31 12:22 295 0 gusting 3 25.0
2014-Oct-31 12:17 242 0 gusting 2 24.4
2014-Oct-31 12:12 317 0 gusting 3 24.4
2014-Oct-31 12:07 315 0 gusting 3 24.4
2014-Oct-31 12:02 054 0 gusting 5 23.9
2014-Oct-31 11:57 015 1 gusting 5 23.9
2014-Oct-31 11:52 073 1 gusting 6 23.3
2014-Oct-31 11:47 044 2 gusting 6 23.3
2014-Oct-31 11:42 066 2 gusting 5 23.3
2014-Oct-31 11:37 031 1 gusting 5 23.3
2014-Oct-31 11:32 031 1 gusting 5 23.3
2014-Oct-31 11:27 042 1 gusting 5 22.8
2014-Oct-31 11:22 063 1 gusting 5 22.8
2014-Oct-31 11:17 052 1 gusting 5 22.8
2014-Oct-31 11:12 083 1 gusting 5 22.8
2014-Oct-31 11:07 338 1 gusting 5 22.2
2014-Oct-31 11:02 119 1 gusting 5 22.2
2014-Oct-31 10:57 073 1 gusting 5 22.2
2014-Oct-31 10:52 039 1 gusting 6 21.7
2014-Oct-31 10:47 068 2 gusting 6 21.7
2014-Oct-31 10:42 054 3 gusting 6 21.1
2014-Oct-31 10:37 030 4 gusting 6 21.1
2014-Oct-31 10:32 099 3 gusting 6 21.1
2014-Oct-31 10:27 063 2 gusting 6 20.6
2014-Oct-31 10:22 067 3 gusting 6 20.6
2014-Oct-31 10:17 041 2 gusting 6 20.6
2014-Oct-31 10:12 077 2 gusting 6 20.0
2014-Oct-31 10:07 061 3 gusting 6 20.0
2014-Oct-31 10:02 061 3 gusting 5 19.4
2014-Oct-31 09:57 034 3 gusting 5 19.4
2014-Oct-31 09:52 048 3 gusting 6 19.4
2014-Oct-31 09:47 038 3 gusting 6 19.4
2014-Oct-31 09:42 064 2 gusting 5 18.9
2014-Oct-31 09:37 047 1 gusting 5 18.9
2014-Oct-31 09:32 064 1 gusting 5 18.9
2014-Oct-31 09:27 053 1 gusting 5 18.9
2014-Oct-31 09:22 065 1 gusting 5 18.3
2014-Oct-31 09:17 071 2 gusting 5 18.3
2014-Oct-31 09:12 077 2 gusting 6 18.3
2014-Oct-31 09:07 080 1 gusting 6 18.3
2014-Oct-31 09:02 079 1 gusting 6 17.8
2014-Oct-31 08:57 057 1 gusting 6 17.8
2014-Oct-31 08:52 103 1 gusting 7 17.2
2014-Oct-31 08:47 103 3 gusting 7 17.2
2014-Oct-31 08:42 088 4 gusting 9 16.7
2014-Oct-31 08:37 098 4 gusting 9 16.7
2014-Oct-31 08:32 068 4 gusting 6 16.7
2014-Oct-31 08:27 069 3 gusting 6 16.1
2014-Oct-31 08:22 061 2 gusting 6 16.1
2014-Oct-31 08:17 064 3 gusting 6 16.1
2014-Oct-31 08:12 069 3 gusting 8 15.6
2014-Oct-31 08:07 065 4 gusting 8 15.6
2014-Oct-31 08:02 055 4 gusting 6 15.6
2014-Oct-31 07:57 065 4 gusting 6 15.6
2014-Oct-31 07:52 049 4 gusting 5 15.6
2014-Oct-31 07:47 024 3 gusting 5 15.6
2014-Oct-31 07:42 046 2 gusting 6 15.6
2014-Oct-31 07:37 053 3 gusting 6 15.6
2014-Oct-31 07:32 044 3 gusting 6 15.6
2014-Oct-31 07:27 034 3 gusting 6 15.6
2014-Oct-31 07:22 022 1 gusting 3 15.6
2014-Oct-31 07:17 018 1 gusting 3 15.0
2014-Oct-31 07:12 059 1 gusting 3 15.0
2014-Oct-31 07:07 051 0 gusting 3 15.0
2014-Oct-31 07:02 005 0 gusting 3 15.0
2014-Oct-31 06:57 351 0 gusting 3 15.0
2014-Oct-31 06:52 300 0 gusting 3 15.0
2014-Oct-31 06:47 296 1 gusting 3 15.0
2014-Oct-31 06:42 350 1 gusting 3 15.0
2014-Oct-31 06:37 033 0 gusting 3 15.0
2014-Oct-31 06:32 005 0 gusting 2 15.0
2014-Oct-31 06:27 005 0 gusting 2 15.0
2014-Oct-31 06:22 013 0 gusting 3 15.0
2014-Oct-31 06:17 016 0 gusting 4 15.0
2014-Oct-31 06:12 351 1 gusting 4 15.0
2014-Oct-31 06:07 15.0
2014-Oct-31 06:02 288 1 gusting 2 15.0
2014-Oct-31 05:57 304 0 gusting 2 15.0
2014-Oct-31 05:52 040 15.0
2014-Oct-31 05:47 044 0 gusting 3 15.0
2014-Oct-31 05:42 044 1 gusting 3 15.0
2014-Oct-31 05:37 034 0 gusting 3 15.0
2014-Oct-31 05:32 005 0 gusting 4 15.0
2014-Oct-31 05:27 349 0 gusting 4 15.0
2014-Oct-31 05:22 348 1 gusting 3 15.0
2014-Oct-31 05:17 15.0
2014-Oct-31 05:12 15.0
2014-Oct-31 05:07 348 0 gusting 3 15.0
2014-Oct-31 05:02 034 0 gusting 3 15.0
2014-Oct-31 04:57 350 1 gusting 3 15.0
2014-Oct-31 04:52 336 1 gusting 5 15.0
2014-Oct-31 04:47 327 0 gusting 5 15.0
2014-Oct-31 04:42 327 0 gusting 5 15.0
2014-Oct-31 04:37 324 0 gusting 5 15.0
2014-Oct-31 04:32 323 15.0
2014-Oct-31 04:27 323 0 gusting 2 15.0
2014-Oct-31 04:22 323 0 gusting 3 15.0
2014-Oct-31 04:17 318 0 gusting 3 15.0
2014-Oct-31 04:12 304 1 gusting 3 15.0
2014-Oct-31 04:07 304 1 gusting 3 15.0
2014-Oct-31 04:02 300 1 gusting 2 15.0
2014-Oct-31 03:57 315 1 gusting 2 15.6
2014-Oct-31 03:52 326 0 gusting 2 15.6
2014-Oct-31 03:47 326 0 gusting 2 15.6
2014-Oct-31 03:42 331 0 gusting 4 15.6
2014-Oct-31 03:37 290 0 gusting 4 15.6
2014-Oct-31 03:32 286 1 gusting 4 15.6
2014-Oct-31 03:27 279 2 gusting 4 15.6
2014-Oct-31 03:22 272 1 gusting 3 15.6
2014-Oct-31 03:17 313 0 gusting 3 16.1
2014-Oct-31 03:12 020 1 gusting 6 16.1
2014-Oct-31 03:07 296 1 gusting 6 16.1
2014-Oct-31 03:02 242 2 gusting 6 16.1
2014-Oct-31 02:57 013 1 gusting 6 16.1
2014-Oct-31 02:52 005 16.7
2014-Oct-31 02:47 020 16.7
2014-Oct-31 02:42 020 0 gusting 3 16.7
2014-Oct-31 02:37 005 1 gusting 3 16.7
2014-Oct-31 02:32 329 1 gusting 3 16.7
2014-Oct-31 02:27 296 0 gusting 3 16.7
2014-Oct-31 02:22 285 1 gusting 4 16.7
2014-Oct-31 02:17 015 1 gusting 4 17.2
2014-Oct-31 02:12 342 0 gusting 4 17.2
2014-Oct-31 02:07 338 0 17.2
2014-Oct-31 02:02 050 17.2
2014-Oct-31 01:57 050 17.2
2014-Oct-31 01:52 050 17.2
2014-Oct-31 01:47 050 17.2
2014-Oct-31 01:42 050 0 gusting 3 17.2
2014-Oct-31 01:37 055 0 gusting 3 17.2
2014-Oct-31 01:32 052 0 gusting 3 17.2
2014-Oct-31 01:27 031 1 gusting 3 17.2
2014-Oct-31 01:22 049 0 gusting 3 17.2
2014-Oct-31 01:17 064 0 gusting 3 17.2
2014-Oct-31 01:12 064 0 gusting 3 17.2
2014-Oct-31 01:07 018 0 gusting 3 17.2
2014-Oct-31 01:02 027 0 gusting 4 17.2
2014-Oct-31 00:57 021 2 gusting 4 17.2
2014-Oct-31 00:52 019 2 gusting 3 17.2
2014-Oct-31 00:47 010 1 gusting 3 17.2
2014-Oct-31 00:42 347 1 gusting 3 17.2
2014-Oct-31 00:37 028 1 gusting 3 17.2
2014-Oct-31 00:32 016 0 gusting 3 17.8
2014-Oct-31 00:27 027 17.8
2014-Oct-31 00:22 034 0 gusting 4 17.8
2014-Oct-31 00:17 034 0 gusting 4 17.8
2014-Oct-31 00:12 033 1 gusting 3 17.8
2014-Oct-31 00:08 030 0 gusting 3 17.8
2014-Oct-30 23:57 334 17.8
2014-Oct-30 23:52 334 17.8
2014-Oct-30 23:47 325 0 gusting 2 18.3
2014-Oct-30 23:42 010 0 gusting 3 18.3
2014-Oct-30 23:37 005 18.3
2014-Oct-30 23:32 005 18.3
2014-Oct-30 23:27 005 0 gusting 3 18.3
2014-Oct-30 23:22 18.3
2014-Oct-30 23:17 020 18.3
2014-Oct-30 23:12 021 18.3
2014-Oct-30 23:07 033 18.3
2014-Oct-30 23:02 033 18.3
2014-Oct-30 22:57 033 18.3
2014-Oct-30 22:52 033 18.3
2014-Oct-30 22:47 029 18.3
2014-Oct-30 22:42 029 18.3
2014-Oct-30 22:37 029 18.3
2014-Oct-30 22:32 029 18.3
2014-Oct-30 22:27 030 18.3
2014-Oct-30 22:22 031 0 gusting 3 18.9
2014-Oct-30 22:17 031 1 gusting 3 18.9
2014-Oct-30 22:12 031 0 gusting 3 18.9
2014-Oct-30 22:07 355 18.9
2014-Oct-30 22:02 340 18.9
2014-Oct-30 21:57 340 18.9
2014-Oct-30 21:52 340 18.9
2014-Oct-30 21:47 340 0 gusting 2 18.9
2014-Oct-30 21:42 265 0 gusting 4 18.9
2014-Oct-30 21:37 265 1 gusting 4 18.9
2014-Oct-30 21:32 265 2 gusting 3 18.9
2014-Oct-30 21:27 267 0 gusting 3 19.4
2014-Oct-30 21:22 292 19.4
2014-Oct-30 21:17 292 19.4
2014-Oct-30 21:12 292 0 gusting 2 20.0
2014-Oct-30 21:07 292 1 gusting 2 20.0
2014-Oct-30 21:02 250 1 gusting 3 20.0
2014-Oct-30 20:57 250 1 gusting 3 20.0
2014-Oct-30 20:52 250 1 gusting 4 19.4
2014-Oct-30 20:47 250 2 gusting 4 19.4
2014-Oct-30 20:42 250 1 gusting 5 20.0
2014-Oct-30 20:37 248 1 gusting 5 20.0
2014-Oct-30 20:32 025 3 gusting 6 20.0
2014-Oct-30 20:27 018 4 gusting 6 20.0
2014-Oct-30 20:22 20.0
2014-Oct-30 20:17 010 2 gusting 6 20.0
2014-Oct-30 20:12 013 1 gusting 4 20.6
2014-Oct-30 20:07 327 1 gusting 4 20.6
2014-Oct-30 20:02 312 2 gusting 5 20.6
2014-Oct-30 19:57 321 2 gusting 5 20.6
2014-Oct-30 19:52 304 1 gusting 2 21.1
2014-Oct-30 19:47 250 21.7
2014-Oct-30 19:42 225 21.7
2014-Oct-30 19:37 225 21.7
2014-Oct-30 19:32 281 0 gusting 2 21.7
2014-Oct-30 19:27 281 0 gusting 2 21.7
2014-Oct-30 19:22 282 0 gusting 3 21.7
2014-Oct-30 19:17 276 0 gusting 3 21.7
2014-Oct-30 19:12 276 1 gusting 2 21.7
2014-Oct-30 19:07 276 0 gusting 2 21.7
2014-Oct-30 19:02 283 1 gusting 2 22.2
2014-Oct-30 18:57 275 0 gusting 2 22.2
2014-Oct-30 18:52 329 22.2
2014-Oct-30 18:47 348 22.2
2014-Oct-30 18:42 348 22.2
2014-Oct-30 18:37 348 22.8
2014-Oct-30 18:32 348 22.8
2014-Oct-30 18:27 349 22.8
2014-Oct-30 18:22 351 0 gusting 3 22.8
2014-Oct-30 18:17 005 0 gusting 3 23.3
2014-Oct-30 18:12 346 0 gusting 3 23.3
2014-Oct-30 18:07 346 0 gusting 3 23.9
2014-Oct-30 18:02 346 0 gusting 4 23.9
2014-Oct-30 17:57 355 1 gusting 4 24.4
2014-Oct-30 17:52 030 2 gusting 6 24.4
2014-Oct-30 17:47 017 3 gusting 6 25.0
2014-Oct-30 17:42 022 3 gusting 6 25.0
2014-Oct-30 17:37 023 3 gusting 6 25.6
2014-Oct-30 17:32 034 3 gusting 5 25.6
2014-Oct-30 17:27 031 3 gusting 5 26.1
2014-Oct-30 17:22 040 2 gusting 5 26.1
2014-Oct-30 17:17 026 2 gusting 5 26.1
2014-Oct-30 17:12 026 2 gusting 5 26.7
2014-Oct-30 17:07 042 2 gusting 5 26.7
2014-Oct-30 17:02 054 3 gusting 9 27.2
2014-Oct-30 16:57 055 3 gusting 9 27.2
2014-Oct-30 16:52 046 3 gusting 9 27.2
2014-Oct-30 16:47 049 4 gusting 9 27.8
2014-Oct-30 16:42 061 4 gusting 9 27.8
2014-Oct-30 16:37 052 4 gusting 9 27.8
2014-Oct-30 16:32 041 5 gusting 9 27.8
2014-Oct-30 16:27 053 5 gusting 9 28.3
2014-Oct-30 16:22 052 4 gusting 12 28.3
2014-Oct-30 16:17 074 5 gusting 12 28.3
2014-Oct-30 16:12 044 4 gusting 6 28.3
2014-Oct-30 16:07 064 4 gusting 6 28.3
2014-Oct-30 16:02 053 4 gusting 9 28.3
2014-Oct-30 15:57 044 4 gusting 9 28.3
2014-Oct-30 15:52 046 4 gusting 7 28.3
2014-Oct-30 15:47 355 4 gusting 7 28.3
2014-Oct-30 15:42 012 4 gusting 9 28.3
2014-Oct-30 15:37 027 5 gusting 9 28.3
2014-Oct-30 15:32 045 4 gusting 10 28.3
2014-Oct-30 15:27 005 4 gusting 10 28.3
2014-Oct-30 15:22 048 5 gusting 10 27.8
2014-Oct-30 15:17 032 6 gusting 10 27.8
2014-Oct-30 15:12 027 6 gusting 10 27.8
2014-Oct-30 15:07 011 6 gusting 10 27.8
2014-Oct-30 15:02 025 6 gusting 10 27.8
2014-Oct-30 14:57 041 5 gusting 10 27.8
2014-Oct-30 14:52 355 5 gusting 9 27.8
2014-Oct-30 14:47 069 6 gusting 9 27.8
2014-Oct-30 14:42 026 5 gusting 10 27.8
2014-Oct-30 14:37 025 5 gusting 10 27.8
2014-Oct-30 14:32 036 5 gusting 10 27.8
2014-Oct-30 14:27 017 5 gusting 10 27.2
2014-Oct-30 14:22 043 4 gusting 10 27.2
2014-Oct-30 14:17 024 5 gusting 10 27.2
2014-Oct-30 14:12 027 5 gusting 9 27.2
2014-Oct-30 14:07 028 5 gusting 9 27.2
2014-Oct-30 14:02 047 5 gusting 10 27.2
2014-Oct-30 13:57 041 5 gusting 10 27.2
2014-Oct-30 13:52 022 5 gusting 10 27.2
2014-Oct-30 13:47 046 5 gusting 10 26.7
2014-Oct-30 13:42 033 5 gusting 12 26.7
2014-Oct-30 13:37 005 6 gusting 12 26.7
2014-Oct-30 13:32 061 6 gusting 12 26.7
2014-Oct-30 13:27 081 6 gusting 12 26.7
2014-Oct-30 13:22 055 5 gusting 8 26.1
2014-Oct-30 13:17 046 4 gusting 8 26.1
2014-Oct-30 13:12 056 4 gusting 8 26.1
2014-Oct-30 13:07 055 4 gusting 8 26.1
2014-Oct-30 13:02 027 5 gusting 8 26.1
2014-Oct-30 12:57 053 5 gusting 8 25.6
2014-Oct-30 12:52 024 4 gusting 8 25.6
2014-Oct-30 12:47 028 4 gusting 8 25.6
2014-Oct-30 12:42 048 4 gusting 9 25.6
2014-Oct-30 12:37 071 5 gusting 9 25.0
2014-Oct-30 12:32 005 5 gusting 9 25.0
2014-Oct-30 12:27 023 5 gusting 9 25.0
2014-Oct-30 12:22 038 6 gusting 10 24.4
2014-Oct-30 12:17 040 6 gusting 10 24.4
2014-Oct-30 12:12 051 6 gusting 10 24.4
2014-Oct-30 12:07 044 5 gusting 10 24.4
2014-Oct-30 12:02 036 5 gusting 9 24.4
2014-Oct-30 11:57 043 5 gusting 9 24.4
2014-Oct-30 11:52 017 5 gusting 10 24.4
2014-Oct-30 11:47 066 5 gusting 10 24.4
2014-Oct-30 11:42 059 6 gusting 11 23.9
2014-Oct-30 11:37 046 7 gusting 11 23.9
2014-Oct-30 11:32 061 6 gusting 11 23.9
2014-Oct-30 11:27 051 6 gusting 11 23.9
2014-Oct-30 11:22 060 6 gusting 11 23.3
2014-Oct-30 11:17 050 5 gusting 11 23.3
2014-Oct-30 11:12 034 6 gusting 11 23.3
2014-Oct-30 11:07 050 6 gusting 11 23.3
2014-Oct-30 11:02 047 7 gusting 11 22.8
2014-Oct-30 10:57 073 6 gusting 11 22.8
2014-Oct-30 10:52 075 6 gusting 12 22.8
2014-Oct-30 10:47 063 7 gusting 12 22.2
2014-Oct-30 10:42 044 6 gusting 10 22.2
2014-Oct-30 10:37 042 6 gusting 10 22.2
2014-Oct-30 10:32 053 6 gusting 10 21.7
2014-Oct-30 10:27 063 5 gusting 10 21.7
2014-Oct-30 10:22 013 6 gusting 10 21.7
2014-Oct-30 10:17 062 5 gusting 10 21.1
2014-Oct-30 10:12 059 5 gusting 12 21.1
2014-Oct-30 10:07 065 6 gusting 12 20.6
2014-Oct-30 10:02 063 6 gusting 12 20.6
2014-Oct-30 09:57 036 6 gusting 12 20.0
2014-Oct-30 09:52 076 6 gusting 9 20.0
2014-Oct-30 09:47 059 5 gusting 9 20.0
2014-Oct-30 09:42 046 5 gusting 9 19.4
2014-Oct-30 09:37 059 4 gusting 9 19.4
2014-Oct-30 09:32 076 5 gusting 8 19.4
2014-Oct-30 09:27 055 5 gusting 8 19.4
2014-Oct-30 09:22 065 5 gusting 9 18.9
2014-Oct-30 09:17 063 5 gusting 9 18.9
2014-Oct-30 09:12 107 6 gusting 9 18.3
2014-Oct-30 09:07 064 5 gusting 9 18.3
2014-Oct-30 09:02 070 5 gusting 11 18.3
2014-Oct-30 08:57 057 5 gusting 11 17.8
2014-Oct-30 08:52 040 5 gusting 11 17.8
2014-Oct-30 08:47 053 4 gusting 11 17.8
2014-Oct-30 08:42 042 4 gusting 6 17.8
2014-Oct-30 08:37 049 4 gusting 6 17.8
2014-Oct-30 08:32 053 3 gusting 6 17.8
2014-Oct-30 08:27 039 2 gusting 6 17.8
2014-Oct-30 08:22 057 2 gusting 6 17.8
2014-Oct-30 08:17 069 2 gusting 6 17.8
2014-Oct-30 08:12 031 2 gusting 6 17.8
2014-Oct-30 08:07 034 2 gusting 6 17.2
2014-Oct-30 08:02 048 2 gusting 5 17.2
2014-Oct-30 07:57 021 2 gusting 5 17.2
2014-Oct-30 07:52 021 1 gusting 2 16.7
2014-Oct-30 07:47 311 0 gusting 2 16.7
2014-Oct-30 07:42 306 0 gusting 2 16.7
2014-Oct-30 07:37 328 0 gusting 2 16.7
2014-Oct-30 07:32 327 16.7
2014-Oct-30 07:27 328 16.7
2014-Oct-30 07:22 339 0 gusting 2 16.7
2014-Oct-30 07:17 340 0 gusting 2 16.1
2014-Oct-30 07:12 036 16.1
2014-Oct-30 07:07 036 16.1
2014-Oct-30 07:02 036 0 gusting 3 16.1
2014-Oct-30 06:57 036 1 gusting 3 16.1
2014-Oct-30 06:52 038 1 gusting 3 16.1
2014-Oct-30 06:47 046 1 gusting 3 16.1
2014-Oct-30 06:42 061 1 gusting 5 16.1
2014-Oct-30 06:37 041 2 gusting 5 16.1
2014-Oct-30 06:32 022 2 gusting 3 16.1
2014-Oct-30 06:27 005 1 gusting 3 16.1
2014-Oct-30 06:22 342 1 gusting 2 16.1
2014-Oct-30 06:17 336 0 gusting 4 16.1
2014-Oct-30 06:12 294 0 gusting 4 16.1
2014-Oct-30 06:07 355 1 gusting 4 16.1
2014-Oct-30 06:02 355 1 gusting 4 16.1
2014-Oct-30 05:57 355 1 gusting 4 16.1
2014-Oct-30 05:52 16.1
2014-Oct-30 05:47 038 16.1
2014-Oct-30 05:42 355 16.1
2014-Oct-30 05:37 010 0 gusting 5 16.1
2014-Oct-30 05:32 024 1 gusting 4 16.1
2014-Oct-30 05:27 026 1 gusting 4 16.1
2014-Oct-30 05:22 036 1 gusting 3 16.1
2014-Oct-30 05:17 057 0 gusting 3 16.1
2014-Oct-30 05:12 017 0 gusting 4 16.1
2014-Oct-30 05:07 036 0 gusting 4 16.1
2014-Oct-30 05:02 028 1 gusting 5 16.1
2014-Oct-30 04:57 046 2 gusting 5 16.1
2014-Oct-30 04:52 010 2 gusting 3 16.1
2014-Oct-30 04:47 020 2 gusting 3 16.7
2014-Oct-30 04:42 025 1 gusting 5 16.7
2014-Oct-30 04:37 023 2 gusting 5 16.7
2014-Oct-30 04:32 019 2 gusting 5 16.7
2014-Oct-30 04:27 015 2 gusting 5 16.7
2014-Oct-30 04:22 026 2 gusting 6 16.7
2014-Oct-30 04:17 030 3 gusting 6 16.7
2014-Oct-30 04:12 026 3 gusting 6 16.7
2014-Oct-30 04:07 16.7
2014-Oct-30 04:02 005 3 gusting 5 16.7